星链-5176 (STARLINK-5176 )

导读

STARLINK-5176是美国太空探索技术公司SpaceX星链卫星星座中的一颗卫星,于2022年10月20日发射入轨,属于星链互联网卫星项目,承担着为全球范围提供低延迟、高速宽带互联网服务的任务,运行在近地轨道,是SpaceX大规模组网部署星链星座进程中的组成部分。

基本信息
目录编号:
54053
目录名称:
STARLINK-5176
国际标识:
2022-136C
轨道中心:
EARTH
卫星名称:
星链-5176
卫星全名:
星链-5176 (STARLINK-5176 )
卫星状态:
在轨 (已飞行1415 天)
发射日期:
2022-10-20 UTC
国别 :
美国 (US)
星等 :
--
轨道信息
数据来源 国际轨道数据 AOE轨道数据
星历时间 2026-09-03T17:34:35+0800
20小时前
查看轨道信息
2026-09-03T07:00:00+0800
1天前
查看轨道信息
半长轴 6848.839km 6848.798km
偏心率 0.0001098 0.0001586
轨道倾角 53.158° 53.157°
近地点辐角 93.402° 50.311°
升交点赤经 254.474° 256.527°
平近点角 266.711° 38.465°
近地点 469.949km 469.574km
远地点 471.455km 471.748km
周期 94.012分钟 94.012分钟
每日圈数 15.317129 15.317266
详细信息
固有亮度:
5
最大亮度:
2.5
卫星平台:
Starlink v1.5
覆盖范围:
全球
运营商:
太空探索技术公司
运营商所在国:
美国
制造商(研发单位):
太空探索技术公司
制造商所在国:
美国
使用方式:
暂无
卫星简介
星链(Starlink)计划是由太空探索技术公司(SpaceX)提出的一个巨型低轨卫星互联网星座项目,计划在2019年至2024年间在太空搭建由约1.2万颗卫星组成的“星链”网络,其中1584颗将部署在地球上空550千米处的近地轨道,并从2020年开始工作。该卫星仍在工作。
2D轨道图
3D轨道图
轨道高度分析图
轨道倾角分析图
轨道综合分析图
查看轨道综合分析图
交会数据列表
事件ID 空间交会对象 最接近时刻(TCA) 交会距离 交会风险概率(CRP) 交会风险指数(CRI) 操作
CDM_260830-214805-405306-932921
2026-08-30T
21:48:01+0000
2.780 km
极远距离
8.637452E-7 极低风险 0.34